C/2016 B1 ( NEOWISE )

Japanese version
Home page
Updated on May 22, 2017

---------------------------------------------------------------------

* Profile

Discovery Date January 17, 2016
Magnitude 19 mag
Discoverer Near-Earth Object Wide-field Infrared Survey Explorer

* Pictures

* Orbital Elements

Epoch 2016 Nov. 28.0 TT = JDT 2457720.5
T 2016 Dec. 4.71872 TT                                  MPCW
q   3.2061599            (2000.0)            P               Q
z  +0.0023041      Peri.    8.55947     -0.53484231     +0.58732794
 +/-0.0000022      Node   231.95351     -0.81370569     -0.55171783
e   0.9926126      Incl.   50.47511     -0.22765490     +0.59215988
From 115 observations 2016 Jan. 17-2017 Mar. 3, mean residual 0".5.

* Finding Charts

* Magnitudes Graph

        m1 = 3.0 + 5 log d + 20.0 log r

---------------------------------------------------------------------

The orbital elements are published on M.P.E.C. 2017-E59.
The charts are made with StellaNavigator Ver.10 (AstroArts).
The magnitudes graphs are made with Comet for Windows.

---------------------------------------------------------------------

Copyright(C) Seiichi Yoshida (comet@aerith.net). All rights reserved.